• In India
  • List of Countries
  • For 7 days
  • Water Temperature
  • Satellite Maps
  • Weather Map
  • Weather Widgets
  • user-avatar
    Login

    Hourly Weather Mayrhofen

    Today, 23 October, Monday

    Time Temperature Precipitation Wind Pressure Humidity
    00:00 -4°C° 0.6 mm 3 mps 614 mmHg 93%
    01:00 -2°C° 0 mm 2 mps 614 mmHg 90%
    02:00 -3°C° 0.5 mm 2 mps 614 mmHg 90%
    03:00 -3°C° 0.5 mm 2 mps 614 mmHg 91%
    04:00 -4°C° 0.5 mm 3 mps 614 mmHg 91%
    05:00 -4°C° 0.6 mm 3 mps 614 mmHg 91%
    06:00 -4°C° 0.6 mm 3 mps 614 mmHg 91%
    07:00 -4°C° 0 mm 3 mps 614 mmHg 91%
    08:00 -2°C° 0.5 mm 3 mps 615 mmHg 88%
    09:00 -2°C° 0.5 mm 3 mps 615 mmHg 85%
    10:00 -1°C° 0.5 mm 3 mps 615 mmHg 82%
    11:00 -1°C° 0.6 mm 3 mps 616 mmHg 81%
    12:00 0°C° 0.6 mm 3 mps 616 mmHg 80%
    13:00 0°C° 0.6 mm 3 mps 616 mmHg 80%
    14:00 0°C° 0.6 mm 3 mps 616 mmHg 81%
    15:00 0°C° 0.6 mm 3 mps 616 mmHg 83%
    16:00 -1°C° 0.6 mm 3 mps 616 mmHg 84%
    17:00 -1°C° 0.8 mm 3 mps 617 mmHg 87%
    18:00 -2°C° 0.8 mm 3 mps 617 mmHg 89%
    19:00 -2°C° 0.8 mm 3 mps 617 mmHg 91%
    20:00 -2°C° 0.8 mm 3 mps 617 mmHg 91%
    21:00 -2°C° 0.8 mm 3 mps 618 mmHg 92%
    22:00 -2°C° 0.8 mm 3 mps 618 mmHg 92%
    23:00 -2°C° 0.6 mm 2 mps 618 mmHg 92%

    Tomorrow, 24 October, Tuesday

    Time Temperature Precipitation Wind Pressure Humidity
    00:00 -2°C° 0.6 mm 2 mps 619 mmHg 92%
    01:00 -2°C° 0.6 mm 2 mps 619 mmHg 92%
    02:00 -2°C° 0.3 mm 2 mps 619 mmHg 93%
    03:00 -2°C° 0.3 mm 2 mps 619 mmHg 93%
    04:00 -3°C° 0.3 mm 2 mps 619 mmHg 94%
    05:00 -3°C° 0.1 mm 2 mps 619 mmHg 93%
    06:00 -3°C° 0.1 mm 2 mps 619 mmHg 93%
    07:00 -3°C° 0.1 mm 2 mps 619 mmHg 93%
    08:00 -1°C° 0 mm 3 mps 620 mmHg 89%
    09:00 0°C° 0 mm 3 mps 621 mmHg 85%
    10:00 +2°C° 0 mm 3 mps 621 mmHg 81%
    11:00 +2°C° 0 mm 3 mps 621 mmHg 80%
    12:00 +3°C° 0 mm 3 mps 621 mmHg 79%
    13:00 +4°C° 0 mm 3 mps 621 mmHg 78%
    14:00 +5°C° 0 mm 2 mps 621 mmHg 80%
    15:00 +4°C° 0 mm 2 mps 621 mmHg 83%
    16:00 +4°C° 0 mm 2 mps 621 mmHg 85%
    17:00 +3°C° 0 mm 2 mps 621 mmHg 87%
    18:00 +2°C° 0 mm 2 mps 621 mmHg 90%
    19:00 -1°C° 0 mm 2 mps 621 mmHg 92%
    20:00 -1°C° 0 mm 2 mps 621 mmHg 91%
    21:00 -1°C° 0 mm 2 mps 621 mmHg 90%
    22:00 -1°C° 0 mm 2 mps 621 mmHg 89%
    23:00 -1°C° 0 mm 2 mps 621 mmHg 88%

    Day after tomorrow, 25 October, Wednesday

    Time Temperature Precipitation Wind Pressure Humidity
    00:00 -1°C° 0 mm 2 mps 621 mmHg 86%
    01:00 +1°C° 0 mm 2 mps 621 mmHg 85%
    02:00 +1°C° 0 mm 2 mps 621 mmHg 84%
    03:00 +1°C° 0 mm 2 mps 621 mmHg 83%
    04:00 +1°C° 0 mm 2 mps 621 mmHg 82%
    05:00 +1°C° 0 mm 2 mps 621 mmHg 82%
    06:00 +2°C° 0 mm 2 mps 621 mmHg 83%
    07:00 +2°C° 0 mm 2 mps 621 mmHg 83%
    08:00 +5°C° 0 mm 1 mps 622 mmHg 82%
    09:00 +7°C° 0 mm 1 mps 623 mmHg 80%
    10:00 +9°C° 0 mm 1 mps 624 mmHg 79%
    11:00 +10°C° 0 mm 1 mps 624 mmHg 77%
    12:00 +11°C° 0 mm 1 mps 625 mmHg 75%
    13:00 +12°C° 0 mm 1 mps 625 mmHg 73%
    14:00 +11°C° 0 mm 1 mps 624 mmHg 76%
    15:00 +10°C° 0 mm 1 mps 624 mmHg 79%
    16:00 +9°C° 0 mm 1 mps 624 mmHg 83%
    17:00 +8°C° 0 mm 1 mps 623 mmHg 83%
    18:00 +6°C° 0 mm 1 mps 623 mmHg 83%
    19:00 +4°C° 0 mm 1 mps 623 mmHg 83%
    20:00 +4°C° 0 mm 1 mps 623 mmHg 81%
    21:00 +4°C° 0 mm 1 mps 623 mmHg 79%
    22:00 +4°C° 0 mm 1 mps 623 mmHg 76%
    23:00 +4°C° 0 mm 1 mps 623 mmHg 75%

    26 October, Thursday

    Time Temperature Precipitation Wind Pressure Humidity
    00:00 +4°C° 0 mm 1 mps 623 mmHg 74%
    01:00 +4°C° 0 mm 1 mps 623 mmHg 72%
    02:00 +4°C° 0 mm 1 mps 623 mmHg 71%
    03:00 +4°C° 0 mm 1 mps 623 mmHg 70%
    04:00 +4°C° 0 mm 1 mps 623 mmHg 69%
    05:00 +4°C° 0 mm 1 mps 623 mmHg 68%
    06:00 +4°C° 0 mm 1 mps 623 mmHg 67%
    07:00 +4°C° 0 mm 1 mps 623 mmHg 66%
    08:00 +7°C° 0 mm 1 mps 624 mmHg 65%
    09:00 +9°C° 0 mm 1 mps 625 mmHg 63%
    10:00 +11°C° 0 mm 0 mps 626 mmHg 62%
    11:00 +12°C° 0 mm 0 mps 626 mmHg 60%
    12:00 +13°C° 0 mm 1 mps 626 mmHg 58%
    13:00 +14°C° 0 mm 1 mps 626 mmHg 55%
    14:00 +13°C° 0 mm 1 mps 626 mmHg 61%
    15:00 +12°C° 0 mm 1 mps 625 mmHg 66%
    16:00 +11°C° 0 mm 1 mps 624 mmHg 72%
    17:00 +9°C° 0 mm 1 mps 624 mmHg 74%
    18:00 +7°C° 0 mm 1 mps 623 mmHg 77%
    19:00 +5°C° 0 mm 1 mps 623 mmHg 79%
    20:00 +5°C° 0 mm 1 mps 623 mmHg 78%
    21:00 +5°C° 0 mm 1 mps 623 mmHg 76%
    22:00 +5°C° 0 mm 1 mps 623 mmHg 74%
    23:00 +5°C° 0 mm 1 mps 622 mmHg 73%

    27 October, Friday

    Time Temperature Precipitation Wind Pressure Humidity
    00:00 +5°C° 0 mm 1 mps 622 mmHg 72%
    01:00 +5°C° 0 mm 1 mps 622 mmHg 70%
    02:00 +4°C° 0 mm 1 mps 621 mmHg 70%
    03:00 +4°C° 0 mm 1 mps 621 mmHg 69%
    04:00 +3°C° 0 mm 2 mps 621 mmHg 69%
    05:00 +3°C° 0 mm 2 mps 621 mmHg 70%
    06:00 +3°C° 0 mm 2 mps 621 mmHg 71%
    07:00 +3°C° 0 mm 2 mps 620 mmHg 72%
    08:00 +5°C° 0 mm 2 mps 621 mmHg 69%
    09:00 +7°C° 0 mm 2 mps 622 mmHg 67%
    10:00 +10°C° 0 mm 2 mps 622 mmHg 65%
    11:00 +10°C° 0 mm 2 mps 622 mmHg 63%
    12:00 +12°C° 0 mm 2 mps 622 mmHg 61%
    13:00 +12°C° 0 mm 2 mps 621 mmHg 60%
    14:00 +10°C° 0.2 mm 2 mps 621 mmHg 67%
    15:00 +9°C° 0.2 mm 2 mps 620 mmHg 74%
    16:00 +7°C° 0.2 mm 2 mps 619 mmHg 81%
    17:00 +6°C° 0.9 mm 2 mps 619 mmHg 85%
    18:00 +6°C° 0.9 mm 2 mps 619 mmHg 88%
    19:00 +5°C° 0.9 mm 2 mps 619 mmHg 92%
    20:00 +4°C° 2.3 mm 2 mps 619 mmHg 92%
    21:00 +3°C° 2.3 mm 3 mps 619 mmHg 93%
    22:00 +2°C° 2.3 mm 3 mps 619 mmHg 94%
    23:00 +2°C° 0.4 mm 3 mps 619 mmHg 94%

    28 October, Saturday

    Time Temperature Precipitation Wind Pressure Humidity
    00:00 +1°C° 0.4 mm 3 mps 619 mmHg 94%
    01:00 0°C° 0.4 mm 3 mps 619 mmHg 95%
    02:00 +1°C° 0 mm 2 mps 618 mmHg 95%
    03:00 -1°C° 0 mm 2 mps 618 mmHg 95%
    04:00 -2°C° 0 mm 2 mps 618 mmHg 95%
    05:00 -3°C° 0 mm 2 mps 618 mmHg 95%
    06:00 -3°C° 0 mm 2 mps 618 mmHg 95%
    07:00 -4°C° 0 mm 2 mps 618 mmHg 94%
    08:00 -3°C° 0.1 mm 2 mps 618 mmHg 89%
    09:00 -2°C° 0.1 mm 2 mps 619 mmHg 84%
    10:00 +1°C° 0.1 mm 2 mps 619 mmHg 78%
    11:00 0°C° 0 mm 3 mps 619 mmHg 74%
    12:00 +1°C° 0 mm 3 mps 619 mmHg 70%
    13:00 +1°C° 0 mm 3 mps 619 mmHg 66%
    14:00 +1°C° 0.1 mm 3 mps 619 mmHg 68%
    15:00 0°C° 0.1 mm 3 mps 619 mmHg 71%
    16:00 0°C° 0.1 mm 3 mps 618 mmHg 73%
    17:00 -1°C° 0.2 mm 3 mps 618 mmHg 78%
    18:00 -2°C° 0.2 mm 3 mps 618 mmHg 83%
    19:00 -3°C° 0.2 mm 2 mps 618 mmHg 87%
    20:00 -3°C° 0.1 mm 2 mps 619 mmHg 88%
    21:00 -3°C° 0.1 mm 2 mps 619 mmHg 89%
    22:00 -4°C° 0.1 mm 2 mps 619 mmHg 90%
    23:00 -4°C° 0 mm 2 mps 619 mmHg 91%

    29 October, Sunday

    Time Temperature Precipitation Wind Pressure Humidity
    00:00 -4°C° 0 mm 2 mps 619 mmHg 91%
    01:00 -4°C° 0 mm 2 mps 619 mmHg 91%
    02:00 -4°C° 0 mm 2 mps 618 mmHg 91%
    03:00 -4°C° 0 mm 2 mps 618 mmHg 90%
    04:00 -4°C° 0 mm 2 mps 618 mmHg 90%
    05:00 -4°C° 0 mm 2 mps 618 mmHg 89%
    06:00 -4°C° 0 mm 2 mps 618 mmHg 88%
    07:00 -4°C° 0 mm 2 mps 618 mmHg 87%
    08:00 -3°C° 0 mm 2 mps 618 mmHg 81%
    09:00 -1°C° 0 mm 2 mps 619 mmHg 76%
    10:00 +2°C° 0 mm 2 mps 619 mmHg 70%
    11:00 +3°C° 0 mm 2 mps 619 mmHg 69%
    12:00 +4°C° 0 mm 2 mps 619 mmHg 68%
    13:00 +5°C° 0 mm 2 mps 619 mmHg 66%
    14:00 +4°C° 0.1 mm 2 mps 618 mmHg 71%
    15:00 +4°C° 0.1 mm 2 mps 618 mmHg 76%
    16:00 +3°C° 0.1 mm 2 mps 617 mmHg 81%
    17:00 +2°C° 0.2 mm 2 mps 617 mmHg 84%
    18:00 +1°C° 0.2 mm 2 mps 617 mmHg 88%
    19:00 -1°C° 0.2 mm 2 mps 617 mmHg 91%
    20:00 -1°C° 0 mm 2 mps 616 mmHg 92%
    21:00 -2°C° 0 mm 2 mps 616 mmHg 93%
    22:00 -2°C° 0 mm 2 mps 616 mmHg 94%
    23:00 -2°C° 0 mm 2 mps 615 mmHg 93%
    Show more